, FL

(GMT )
Crestview

Weather History for KEGI - January, 2014

Change the Weather History Date:

Thursday, January 23, 2014

  Actual Average Record
Temperature  
Mean Temperature 40 °F -  
Max Temperature 53 °F - - ()
Min Temperature 27 °F - - ()
Degree Days  
Heating Degree Days 25    
Moisture  
Dew Point 19 °F    
Average Humidity 49    
Maximum Humidity 89    
Minimum Humidity 22    
Precipitation  
Precipitation 0.00 in - - ()
Sea Level Pressure  
Sea Level Pressure 30.38 in    
Wind  
Wind Speed 3 mph (North)    
Max Wind Speed 13 mph    
Max Gust Speed -    
Visibility 10 miles    
Events      
T = Trace of Precipitation, MM = Missing Value Source: NWS Daily Summary

Daily Weather History Graph

Daily Weather History Graph

Search for Another Location

Airport or City:

Trip Planner

Search our weather history database for the weather conditions in past years. The results will help you decide how hot, cold, wet, or windy it might be!

Date:

Astronomy

Jan. 23, 2014 Rise Set
Actual Time 6:41 AM CST 5:14 PM CST
Civil Twilight 6:16 AM CST 5:40 PM CST
Nautical Twilight 5:47 AM CST 6:09 PM CST
Astronomical Twilight 5:18 AM CST 6:37 PM CST
Moon No Moon Rise 10:48 AM CST (1/23)
Length of Visible Light 11h 23m
Length of Day
10h 32m
Waning Gibbous, 55% of the Moon is Illuminated
Jan 23
Waning Gibbous
Jan 23
Last Quarter
Jan 30
New
Feb 6
First Quarter
Feb 14
Full

Hourly Weather History & Observations

Time (CST) Temp. Windchill Dew Point Humidity Pressure Visibility Wind Dir Wind Speed Gust Speed Precip Events Conditions
12:58 AM 29.1 °F - 24.4 °F 83% 30.25 in 10.0 mi Calm Calm - N/A   Partly Cloudy
1:58 AM 27.0 °F - 23.4 °F 86% 30.25 in 10.0 mi Calm Calm - N/A   Scattered Clouds
2:58 AM 27.7 °F - 24.1 °F 86% 30.27 in 10.0 mi Calm Calm - N/A   Clear
3:58 AM 27.1 °F - 24.3 °F 89% 30.27 in 10.0 mi Calm Calm - N/A   Clear
4:58 AM 27.3 °F - 23.7 °F 86% 30.30 in 10.0 mi Calm Calm - N/A   Partly Cloudy
5:58 AM 28.2 °F - 23.4 °F 82% 30.32 in 10.0 mi Calm Calm - N/A   Overcast
6:58 AM 30.9 °F - 19.6 °F 63% 30.35 in 10.0 mi NNE 1.2 mph - N/A   Scattered Clouds
7:58 AM 33.3 °F 30.2 °F 17.6 °F 53% 30.38 in 10.0 mi NNE 3.5 mph - N/A   Partly Cloudy
8:55 AM 38.8 °F 33.2 °F 14.5 °F 37% 30.40 in 10.0 mi NE 8.1 mph - N/A   Scattered Clouds
9:55 AM 44.8 °F 40.4 °F 11.1 °F 26% 30.41 in 10.0 mi NE 8.1 mph - N/A   Scattered Clouds
10:56 AM 47.5 °F - 11.7 °F 24% 30.41 in 10.0 mi Variable 5.8 mph - N/A   Scattered Clouds
11:55 AM 50.0 °F - 12.6 °F 22% 30.38 in 10.0 mi Variable 2.3 mph - N/A   Mostly Cloudy
12:55 PM 51.4 °F - 15.3 °F 24% 30.35 in 10.0 mi NNW 4.6 mph - N/A   Mostly Cloudy
1:55 PM 53.6 °F - 16.9 °F 24% 30.35 in 10.0 mi NNW 10.4 mph - N/A   Mostly Cloudy
2:55 PM 52.7 °F - 17.2 °F 25% 30.35 in 10.0 mi North 11.5 mph - N/A   Mostly Cloudy
3:55 PM 52.2 °F - 17.6 °F 26% 30.38 in 10.0 mi North 4.6 mph - N/A   Mostly Cloudy
4:56 PM 49.1 °F - 18.5 °F 30% 30.40 in 10.0 mi NNE 4.6 mph - N/A   Mostly Cloudy
5:55 PM 41.9 °F 39.0 °F 23.2 °F 47% 30.40 in 10.0 mi North 4.6 mph - N/A   Clear
6:57 PM 39.6 °F 36.3 °F 22.1 °F 50% 30.43 in 10.0 mi North 4.6 mph - N/A   Clear
7:55 PM 39.6 °F 34.7 °F 19.6 °F 45% 30.45 in 10.0 mi North 6.9 mph - N/A   Clear
8:57 PM 38.8 °F 33.8 °F 18.3 °F 44% 30.45 in 10.0 mi North 6.9 mph - N/A   Clear
9:56 PM 39.4 °F 34.5 °F 17.2 °F 41% 30.49 in 10.0 mi North 6.9 mph - N/A   Scattered Clouds
10:56 PM 40.1 °F 32.7 °F 15.6 °F 37% 30.50 in 10.0 mi North 12.7 mph - N/A   Overcast
11:55 PM 40.1 °F 33.6 °F 14.0 °F 35% 30.50 in 10.0 mi North 10.4 mph - N/A   Overcast